Location: Chippewa Lake
(41.0698°N, 81.9010°W)
Time: 01:24:16
(UTC+00:00)

SL-16 R/B - Pass Details

Date: 09 May 2021
Orbit: 984 x 1007 km, 99.5° (Epoch: 24 June)

Event Time Altitude Azimuth Distance (km) Brightness Sun altitude
Exits shadow 07:09:50 51° 156° (SSE) 1,242 2.7 -26.6°
Maximum altitude 07:11:33 84° 75° (ENE) 1,018 2.5 -26.4°
Drops below altitude 10° 07:17:51 10° 347° (NNW) 2,790 5.5 -25.8°
Sets 07:20:20 0° 347° (NNW) 3,743 6.2 -25.6°
